Тенкели

Россия / Республика Саха (Якутия)     70°11′02″N   140°45′48″E
темп.,
°C
ветер,
м/с
пор.,
м/с
влажн.,
%
обл.,
%
осадки,
мм/ч
давл.,
гПа
погр.,
м
3 марта, ср
ср301:00−37всв11100100 0.0 102719
04:00−38в11100100 0.1 102619
07:00−39в00100100 0.0 102518
10:00−37св0099100 0.0 102419
13:00−35с1196100 0.0 1023110
16:00−35зсз1198100 0.1 102119
19:00−35з2297100 0.0 102129
22:00−34з3397100 0.1 102078
4 марта, чт
чт401:00−33зсз3598100 0.1 1019151
04:00−33зсз4598100 0.2 1017126
07:00−33зсз4698100 0.1 1017166
10:00−32зсз4697100 0.1 1016190
13:00−29зсз7996100 0.1 1015311
16:00−27зсз81196100 0.3 1014451
19:00−26зсз81296100 0.3 1015454
22:00−26зсз101496100 0.6 1015444
5 марта, пт
пт501:00−27зсз121695100 0.4 1015465
04:00−29зсз131993100 0.7 1015487
07:00−30зсз142092100 0.3 1017488
10:00−31зсз152093100 0.4 1017503
13:00−31зсз152193100 0.2 1017507
16:00−31зсз152193100 0.4 1018524
19:00−30зсз142093100 0.3 1020508
22:00−30зсз131991100 0.4 1021489
6 марта, сб
сб601:00−31зсз131990100 0.0 1022458
04:00−31зсз121891100 0.1 1023412
07:00−31зсз111790100 0.0 1024419
10:00−31зсз111691100 0.0 1024411
13:00−30зсз111592100 0.0 1024408
16:00−30зсз101592100 0.0 1024359
19:00−30зсз91591100 0.0 1025338
22:00−30зсз81492100 0.0 1024316
7 марта, вс
вс701:00−31зсз81393100 0.0 1024303
04:00−31зсз61194100 0.0 1024233
07:00−31зсз4994100 0.0 1024173
10:00−31зсз479599 0.0 1023156
13:00−29зсз369495 0.0 1022248
16:00−29зсз239597 0.0 1022105
19:00−31зсз1295100 0.0 102219
22:00−33зюз119890 0.0 102119